Location: *
(10.4782°N, 67.2163°W)
Time: 22:12:29
(UTC+00:00)

ASTEX 1 - Pass Details

Date: 23 May 2024
Orbit: 715 x 739 km, 92.7° (Epoch: 25 June)

Event Time Altitude Azimuth Distance (km) Brightness Sun altitude
Exits shadow 09:00:51 25° 247° (WSW) 1,463 4.3 -15.6°
Maximum altitude 09:01:45 26° 265° (W) 1,411 4.3 -15.4°
Drops below altitude 10° 09:05:52 10° 322° (NW) 2,228 5.8 -14.5°
Sets 09:08:29 0° 334° (NNW) 3,146 6.7 -13.9°
